Wheeler Observed Data For Previous 48 Hours

Caption
Day and Hour Reservoir Elevation (behind dam)* Tailwater Elevation (below dam)* Average Hourly Discharge*
7/16/2018 1 AM CDT 555.31 507.11 28,726
7/16/2018 2 AM CDT 555.30 507.12 28,815
7/16/2018 3 AM CDT 555.29 507.11 28,800
7/16/2018 4 AM CDT 555.28 507.13 28,915
7/16/2018 5 AM CDT 555.28 507.14 28,921
7/16/2018 6 AM CDT 555.28 507.13 28,955
7/16/2018 7 AM CDT 555.28 507.14 28,993
7/16/2018 8 AM CDT 555.31 507.18 29,018
7/16/2018 9 AM CDT 555.31 507.17 29,077
7/16/2018 10 AM CDT 555.27 507.25 29,155
7/16/2018 11 AM CDT 555.30 507.19 29,063
7/16/2018 12 PM CDT 555.32 507.09 29,173
7/16/2018 1 PM CDT 555.32 507.05 29,072
7/16/2018 2 PM CDT 555.32 506.84 29,014
7/16/2018 3 PM CDT 555.33 506.69 28,961
7/16/2018 4 PM CDT 555.31 506.69 29,047
7/16/2018 5 PM CDT 555.30 506.45 28,944
7/16/2018 6 PM CDT 555.30 506.18 28,695
7/16/2018 7 PM CDT 555.30 506.25 28,604
7/16/2018 8 PM CDT 555.26 505.99 28,633
7/16/2018 9 PM CDT 555.28 505.99 28,464
7/16/2018 10 PM CDT 555.29 506.13 28,541
7/16/2018 11 PM CDT 555.28 506.09 28,543
7/17/2018 12 AM CDT 555.27 506.10 28,456
7/17/2018 1 AM CDT 555.29 506.30 18,749
7/17/2018 2 AM CDT 555.28 506.27 18,513
7/17/2018 3 AM CDT 555.28 506.22 18,497
7/17/2018 4 AM CDT 555.28 506.34 18,533
7/17/2018 5 AM CDT 555.31 506.30 18,502
7/17/2018 6 AM CDT 555.32 506.34 18,456
7/17/2018 7 AM CDT 555.35 506.37 18,379
7/17/2018 8 AM CDT 555.35 506.37 18,453
7/17/2018 9 AM CDT 555.37 506.38 18,656
7/17/2018 10 AM CDT 555.40 506.36 18,947
7/17/2018 11 AM CDT 555.41 506.32 18,517
7/17/2018 12 PM CDT 555.41 506.35 18,469
7/17/2018 1 PM CDT 555.43 506.26 19,541
7/17/2018 2 PM CDT 555.44 506.24 18,576
7/17/2018 3 PM CDT 555.44 506.34 15,158
7/17/2018 4 PM CDT 555.46 506.16 16,685
7/17/2018 5 PM CDT 555.49 506.26 18,417
7/17/2018 6 PM CDT 555.52 506.25 18,502
7/17/2018 7 PM CDT 555.56 506.27 18,515
7/17/2018 8 PM CDT 555.56 506.22 18,478
7/17/2018 9 PM CDT 555.59 506.31 18,394
7/17/2018 10 PM CDT 555.58 506.31 18,401
7/17/2018 11 PM CDT 555.60 506.38 18,494
7/18/2018 12 AM CDT 555.60 506.40 18,481
7/18/2018 1 AM CDT 555.60 506.49 18,744
7/18/2018 2 AM CDT 555.61 506.55 18,731
7/18/2018 3 AM CDT 555.62 506.62 18,715
7/18/2018 4 AM CDT 555.63 506.66 18,721
7/18/2018 5 AM CDT 555.64 506.74 18,666
7/18/2018 6 AM CDT 555.70 506.80 18,708
7/18/2018 7 AM CDT 555.71 506.85 18,687
7/18/2018 8 AM CDT 555.72 506.89 18,671
7/18/2018 9 AM CDT 555.75 506.81 19,009
7/18/2018 10 AM CDT 555.77 506.78 18,731
7/18/2018 11 AM CDT 555.80 506.76 18,653
7/18/2018 12 PM CDT 555.80 506.76 18,721
7/18/2018 1 PM CDT 555.80 506.67 19,633
7/18/2018 2 PM CDT 555.82 506.69 18,935
7/18/2018 3 PM CDT 555.82 506.68 18,833
7/18/2018 4 PM CDT 555.83 506.63 18,877
7/18/2018 5 PM CDT 555.84 506.58 18,885

Elevations are in feet above sea level. Discharges are in cubic feet per second and are reported at the end of the hour.